Stations météo

Publicité
Romorantin, France (7247): Température de l'air & dewpoint: 14.09.2019 05:00:00 - 20.09.2019 05:00:00 (CEST)Romorantin, France (7247): Température de l'air 5cm: 14.09.2019 05:00:00 - 20.09.2019 05:00:00 (CEST)Romorantin, France (7247): Température de l'air -20cm & Température de l'air -100cm: 14.09.2019 05:00:00 - 20.09.2019 05:00:00 (CEST)Romorantin, France (7247): Vitesse du vent & gusts: 14.09.2019 05:00:00 - 20.09.2019 05:00:00 (CEST)Romorantin, France (7247): Direction du vent: 14.09.2019 05:00:00 - 20.09.2019 05:00:00 (CEST)Romorantin, France (7247): reduced air pressure: 14.09.2019 05:00:00 - 20.09.2019 05:00:00 (CEST)Romorantin, France (7247): visibility: 14.09.2019 05:00:00 - 20.09.2019 05:00:00 (CEST)Romorantin, France (7247): Quantités de précipitations: 14.09.2019 05:00:00 - 20.09.2019 05:00:00 (CEST)
Date & Time tt [°C] td [°C] tt 5cm [°C] tt -20cm [°C] tt -100cm [°C] ff [km/h] ff [knt] fx [km/h] fx [knt] dd ppp [hPa] vv [km] rr [mm]
20.09.2019 05:00:00 10,5 1,3 8,5 19,3 19,4 11 6 22 12 NE 1023,0 20 0,0
20.09.2019 04:00:00 11,3 1,2 9,5 19,5 19,3 13 7 25 14 NE 1023,3 20 0,0
20.09.2019 03:00:00 11,7 1,3 9,4 19,6 19,3 12 7 22 12 NE 1023,6 20 0,0
20.09.2019 02:00:00 12,4 1,1 9,6 19,7 19,4 11 6 21 11 NE 1023,9 20 0,0
20.09.2019 01:00:00 13,1 1,4 9,6 19,9 19,4 7 4 18 10 NE 1024,3 20 0,0
20.09.2019 00:00:00 14,0 1,6 11,3 19,9 19,4 9 5 20 11 NE 1024,6 20 0,0
19.09.2019 23:00:00 15,3 2,1 12,9 20,0 19,4 12 7 29 16 NE 1024,7 20 0,0
19.09.2019 22:00:00 16,3 3,0 14,6 20,1 19,4 13 7 25 13 NE 1024,4 20 0,0
19.09.2019 21:00:00 17,7 3,2 15,6 20,0 19,4 16 8 27 15 NE 1024,0 20 0,0
19.09.2019 20:00:00 18,8 3,0 16,8 20,0 19,4 10 5 32 18 NE 1023,5 20 0,0
19.09.2019 19:00:00 20,7 3,0 21,4 19,9 19,4 21 12 41 22 NE 1023,2 20 0,0
19.09.2019 18:00:00 22,3 2,9 24,7 19,7 19,4 17 9 42 23 ENE 1022,9 20 0,0
19.09.2019 17:00:00 22,2 2,3 26,4 19,6 19,4 21 11 43 23 NE 1023,2 20 0,0
19.09.2019 16:00:00 22,4 2,5 28,0 19,4 19,4 22 12 53 29 NE 1023,6 20 0,0
19.09.2019 15:00:00 21,9 2,0 28,0 19,2 19,4 23 12 48 26 NE 1023,9 20 0,0
19.09.2019 14:00:00 21,4 2,6 27,1 19,1 19,4 26 14 48 26 ENE 1024,6 20 0,0
19.09.2019 13:00:00 20,3 3,1 26,3 19,1 19,4 28 15 47 26 NE 1025,2 20 0,0
19.09.2019 12:00:00 18,8 4,2 22,8 19,1 19,4 22 12 37 20 NE 1025,4 20 0,0
19.09.2019 11:00:00 16,5 4,5 18,8 19,1 19,5 18 10 31 17 NE 1025,8 20 0,0
19.09.2019 10:00:00 14,1 4,1 14,4 19,1 19,4 16 9 34 18 ENE 1025,6 20 0,0
19.09.2019 09:00:00 12,1 4,3 10,4 19,3 19,4 15 8 32 17 NE 1025,2 20 0,0
19.09.2019 08:00:00 10,4 4,1 8,4 19,4 19,4 11 6 24 13 NE 1024,8 20 0,0
19.09.2019 07:00:00 10,5 4,0 9,0 19,6 19,4 11 6 22 12 NE 1024,6 20 0,0
19.09.2019 06:00:00 10,7 3,9 8,8 19,7 19,4 10 6 27 15 NE 1024,4 20 0,0
19.09.2019 05:00:00 11,6 4,1 10,3 19,8 19,4 14 8 29 15 NE 1024,5 20 0,0
19.09.2019 04:00:00 12,3 4,0 10,9 19,9 19,4 12 7 30 16 NE 1024,3 20 0,0
19.09.2019 03:00:00 13,0 3,9 11,3 20,1 19,4 12 7 30 16 NNE 1024,3 20 0,0
19.09.2019 02:00:00 13,8 4,1 12,0 20,2 19,4 13 7 30 16 NE 1024,3 20 0,0
19.09.2019 01:00:00 14,2 3,9 12,3 20,3 19,5 13 7 30 16 NE 1024,2 20 0,0
19.09.2019 00:00:00 14,4 3,5 12,6 20,4 19,5 11 6 26 14 NNE 1024,1 20 0,0
18.09.2019 23:00:00 15,4 3,2 12,1 20,5 19,4 12 6 25 13 NNE 1023,9 20 0,0
18.09.2019 22:00:00 15,8 1,9 12,8 20,5 19,4 8 5 22 12 NNE 1023,6 20 0,0
18.09.2019 21:00:00 17,3 1,3 15,1 20,6 19,5 11 6 25 14 NE 1023,1 20 0,0
18.09.2019 20:00:00 18,6 0,7 17,3 20,5 19,5 14 7 33 18 NE 1022,3 20 0,0
18.09.2019 19:00:00 20,4 0,8 21,1 20,4 19,5 16 9 44 24 NE 1021,6 20 0,0
18.09.2019 18:00:00 21,2 0,9 23,8 20,3 19,5 19 10 44 24 NE 1021,6 20 0,0
18.09.2019 17:00:00 22,0 -0,7 26,4 20,1 19,4 23 12 44 24 NE 1021,5 20 0,0
18.09.2019 16:00:00 22,4 0,8 28,3 20,0 19,5 16 8 43 23 NE 1021,9 20 0,0
18.09.2019 15:00:00 21,4 4,0 29,1 19,9 19,4 19 10 39 21 NE 1022,2 20 0,0
18.09.2019 14:00:00 21,0 4,1 27,4 19,8 19,5 24 13 41 22 ENE 1022,3 19 0,0
18.09.2019 13:00:00 19,8 6,2 26,9 19,7 19,5 23 13 40 22 NE 1022,5 20 0,0
18.09.2019 12:00:00 17,8 7,5 22,9 19,7 19,4 16 9 36 19 NNE 1022,6 20 0,0
18.09.2019 11:00:00 16,2 7,4 19,1 19,8 19,4 16 9 34 19 NE 1022,6 20 0,0
18.09.2019 10:00:00 14,4 7,4 14,7 19,9 19,5 16 8 32 17 NE 1022,8 20 0,0
18.09.2019 09:00:00 12,5 7,8 11,3 20,0 19,5 13 7 28 15 NE 1022,5 20 0,0
18.09.2019 08:00:00 11,3 7,6 9,9 20,1 19,4 11 6 29 15 NNE 1022,1 20 0,0
18.09.2019 07:00:00 11,6 7,7 10,0 20,2 19,4 12 6 23 13 NE 1021,7 20 0,0
18.09.2019 06:00:00 12,4 7,9 11,3 20,4 19,4 13 7 29 16 NE 1021,5 20 0,0
18.09.2019 05:00:00 12,9 8,0 11,8 20,5 19,4 13 7 34 19 NNE 1021,3 20 0,0
18.09.2019 04:00:00 13,7 8,1 12,3 20,7 19,4 11 6 23 13 NE 1021,3 20 0,0
18.09.2019 03:00:00 14,6 8,1 13,0 20,8 19,4 13 7 26 14 NE 1021,4 20 0,0
18.09.2019 02:00:00 15,3 8,5 13,8 20,9 19,4 12 6 27 15 NE 1021,3 20 0,0
18.09.2019 01:00:00 15,8 8,8 13,9 21,0 19,4 10 6 24 13 NE 1021,0 20 0,0
18.09.2019 00:00:00 16,8 9,0 15,0 21,1 19,5 10 6 24 13 NE 1021,2 20 0,0
17.09.2019 23:00:00 17,4 10,0 12,4 21,1 19,4 11 6 24 13 NE 1020,8 20 0,0
17.09.2019 22:00:00 17,1 11,6 12,4 21,2 19,4 4 2 11 6 NNE 1020,5 20 0,0
17.09.2019 21:00:00 19,3 11,6 16,3 21,1 19,4 5 3 19 10 NNE 1020,0 20 0,0
17.09.2019 20:00:00 20,6 11,8 19,6 21,1 19,4 10 5 29 16 NNE 1019,6 20 0,0
17.09.2019 19:00:00 21,8 12,4 22,6 21,0 19,4 14 8 31 17 NE 1019,6 20 0,0
17.09.2019 18:00:00 22,6 12,8 24,6 20,8 19,4 11 6 32 17 NNE 1019,6 20 0,0
17.09.2019 17:00:00 24,3 13,8 29,2 20,7 19,4 14 8 35 19 NNE 1019,6 20 0,0
17.09.2019 16:00:00 24,3 14,1 27,7 20,5 19,4 18 10 36 19 NNE 1019,6 20 0,0
17.09.2019 15:00:00 25,2 13,4 29,8 20,3 19,4 12 7 34 18 NNE 1019,6 20 0,0
17.09.2019 14:00:00 24,3 13,5 28,4 20,1 19,4 11 6 29 16 NNE 1019,9 20 0,0
17.09.2019 13:00:00 24,2 15,1 31,5 20,0 19,4 12 7 26 14 NNE 1020,4 20 0,0
17.09.2019 12:00:00 22,3 15,2 27,5 20,0 19,4 13 7 29 16 NNE 1020,9 20 0,0
17.09.2019 11:00:00 19,9 15,1 19,2 20,0 19,4 10 5 19 11 NE 1021,2 16 0,0
17.09.2019 10:00:00 16,2 14,6 16,2 20,0 19,4 8 5 19 10 NE 1021,4 10 0,0
17.09.2019 09:00:00 14,6 14,4 12,5 20,2 19,4 6 3 17 9 NE 1021,0 6 0,0
17.09.2019 08:00:00 12,2 12,2 6,1 20,3 19,4 4 2 13 7 ENE 1020,7 8 0,0
17.09.2019 07:00:00 8,9 8,9 5,8 20,5 19,4 2 1 6 3 NE 1020,5 1,3 0,0
17.09.2019 06:00:00 8,8 8,8 5,9 20,7 19,4 0 0 3 2 N 1020,5 18 0,0
17.09.2019 05:00:00 9,2 8,9 6,4 20,8 19,3 0 0 3 2 N 1020,6 20 0,0
17.09.2019 04:00:00 10,1 9,0 7,2 21,0 19,4 0 0 5 3 N 1020,6 20 0,0
17.09.2019 03:00:00 13,5 8,8 9,5 21,2 19,4 3 1 11 6 NE 1020,5 20 0,0
17.09.2019 02:00:00 16,6 9,8 8,8 21,4 19,4 5 3 15 8 NNE 1020,3 20 0,0
17.09.2019 01:00:00 11,6 7,3 7,7 21,5 19,4 5 3 11 6 NE 1020,6 20 0,0
17.09.2019 00:00:00 12,0 6,5 8,4 21,6 19,4 2 1 6 4 N 1020,5 20 0,0
16.09.2019 23:00:00 14,4 8,6 10,5 21,7 19,4 3 2 8 5 N 1020,1 20 0,0
16.09.2019 22:00:00 15,9 8,6 11,9 21,8 19,4 2 1 6 4 N 1019,8 20 0,0
16.09.2019 21:00:00 20,2 8,5 15,4 21,8 19,4 0 0 8 4 N 1019,4 20 0,0
16.09.2019 20:00:00 26,2 8,2 22,8 21,7 19,4 4 2 19 11 N 1018,7 20 0,0
16.09.2019 19:00:00 29,1 7,6 30,0 21,5 19,4 6 3 22 12 N 1018,2 20 0,0
16.09.2019 18:00:00 30,0 7,8 32,3 21,3 19,4 9 5 26 14 NNW 1018,1 20 0,0
16.09.2019 17:00:00 30,8 8,5 36,2 21,0 19,4 8 4 25 13 NNE 1018,3 20 0,0
16.09.2019 16:00:00 30,8 7,9 39,5 20,8 19,3 6 4 27 15 NNE 1018,7 20 0,0
16.09.2019 15:00:00 30,9 8,6 39,8 20,6 19,4 6 4 22 12 NNW 1019,2 20 0,0
16.09.2019 14:00:00 29,7 9,2 38,8 20,4 19,4 8 4 22 12 NNW 1020,0 20 0,0
16.09.2019 13:00:00 28,9 10,1 37,2 20,2 19,3 9 5 18 10 NE 1020,4 20 0,0
16.09.2019 12:00:00 27,6 10,3 33,4 20,1 19,3 7 4 16 9 NE 1021,0 20 0,0
16.09.2019 11:00:00 24,3 10,6 28,5 20,1 19,3 8 4 11 6 NE 1021,3 20 0,0
16.09.2019 10:00:00 20,7 9,9 22,1 20,1 19,3 5 3 11 6 ENE 1021,5 20 0,0
16.09.2019 09:00:00 15,8 10,1 10,9 20,2 19,3 3 1 8 4 NE 1021,2 20 0,0
16.09.2019 08:00:00 10,8 9,4 7,7 20,4 19,3 0 0 6 3 N 1021,3 20 0,0
16.09.2019 07:00:00 9,8 9,5 7,6 20,5 19,3 0 0 4 2 N 1021,0 20 0,0
16.09.2019 06:00:00 10,8 9,7 8,4 20,7 19,3 0 0 4 2 N 1020,9 20 0,0
16.09.2019 05:00:00 10,8 9,6 8,9 20,9 19,3 0 0 5 3 N 1020,9 20 0,0
16.09.2019 04:00:00 11,3 9,9 9,7 21,0 19,3 0 0 4 2 N 1021,4 20 0,0
16.09.2019 03:00:00 12,3 10,2 10,3 21,2 19,3 0 0 2 1 N 1021,7 20 0,0
16.09.2019 02:00:00 14,6 10,6 11,7 21,3 19,3 2 1 8 4 NNW 1021,8 20 0,0
16.09.2019 01:00:00 17,2 10,6 12,2 21,4 19,3 5 3 9 5 NE 1021,7 20 0,0
16.09.2019 00:00:00 16,0 11,2 12,8 21,5 19,3 4 2 10 5 NE 1021,9 20 0,0
15.09.2019 23:00:00 15,9 11,5 13,5 21,6 19,3 4 2 11 6 NNE 1021,8 20 0,0
15.09.2019 22:00:00 17,3 11,6 14,3 21,6 19,3 0 0 4 2 N 1021,6 20 0,0
15.09.2019 21:00:00 20,6 11,5 16,7 21,6 19,3 0 0 6 3 N 1021,1 20 0,0
15.09.2019 20:00:00 27,3 10,9 22,7 21,5 19,3 3 1 11 6 N 1020,3 20 0,0
15.09.2019 19:00:00 30,4 10,4 31,5 21,3 19,3 5 3 16 9 N 1020,1 20 0,0
15.09.2019 18:00:00 31,1 11,0 34,8 21,0 19,3 8 4 17 9 N 1020,2 20 0,0
15.09.2019 17:00:00 32,1 11,3 38,3 20,7 19,3 2 1 18 10 WNW 1020,8 20 0,0
15.09.2019 16:00:00 30,9 11,8 39,0 20,5 19,3 7 4 20 11 E 1021,3 20 0,0
15.09.2019 15:00:00 30,1 12,1 40,1 20,2 19,3 8 4 21 11 NNW 1022,2 20 0,0
15.09.2019 14:00:00 29,0 13,6 37,4 20,0 19,3 7 4 21 11 N 1022,8 20 0,0
15.09.2019 13:00:00 28,4 14,2 34,3 19,9 19,3 12 7 25 14 ENE 1023,5 20 0,0
15.09.2019 12:00:00 25,7 13,9 35,6 19,8 19,3 9 5 18 10 NNE 1024,3 20 0,0
15.09.2019 11:00:00 22,5 13,8 27,3 19,8 19,2 3 2 12 6 NNW 1024,7 20 0,0
15.09.2019 10:00:00 18,8 12,8 20,8 19,8 19,3 5 3 11 6 NNE 1025,1 20 0,0
15.09.2019 09:00:00 14,3 12,7 10,0 19,9 19,3 0 0 2 1 N 1024,7 20 0,0
15.09.2019 08:00:00 9,0 8,9 7,1 20,0 19,3 2 1 3 2 SE 1024,8 3,2 0,0
15.09.2019 07:00:00 9,7 9,7 7,4 20,2 19,3 0 0 7 4 N 1024,6 19 0,0
15.09.2019 06:00:00 10,3 10,3 7,8 20,4 19,3 0 0 3 2 N 1024,5 1,6 0,0
15.09.2019 05:00:00 10,0 9,5 8,4 20,5 19,2 3 2 4 2 S 1025,0 0,7 0,0
15.09.2019 04:00:00 11,1 10,8 9,2 20,6 19,2 0 0 3 2 N 1025,0 0,7 0,0
15.09.2019 03:00:00 12,0 12,0 9,6 20,8 19,2 0 0 3 2 N 1025,1 2,7 0,0
15.09.2019 02:00:00 12,7 10,9 10,1 20,9 19,2 0 0 4 2 N 1025,4 20 0,0
15.09.2019 01:00:00 13,4 11,5 10,6 21,1 19,2 3 1 7 4 NE 1025,5 20 0,0
15.09.2019 00:00:00 13,5 12,7 11,1 21,2 19,2 3 2 8 4 NE 1025,8 20 0,0
14.09.2019 23:00:00 14,1 12,8 11,3 21,3 19,2 0 0 4 2 N 1025,9 20 0,0
14.09.2019 22:00:00 15,7 12,3 12,8 21,3 19,2 0 0 3 1 N 1025,9 20 0,0
14.09.2019 21:00:00 18,3 14,0 15,4 21,3 19,2 0 0 6 4 N 1025,6 20 0,0
14.09.2019 20:00:00 24,7 14,5 21,3 21,2 19,2 4 2 9 5 NNE 1025,2 20 0,0
14.09.2019 19:00:00 26,8 13,9 27,5 21,0 19,2 6 4 16 9 ESE 1025,0 20 0,0
14.09.2019 18:00:00 28,1 13,2 30,4 20,9 19,2 9 5 23 12 ENE 1024,9 20 0,0
14.09.2019 17:00:00 28,1 14,0 31,5 20,7 19,2 11 6 25 14 NE 1025,2 20 0,0
14.09.2019 16:00:00 28,3 13,8 35,0 20,5 19,2 9 5 22 12 NNE 1025,9 20 0,0
14.09.2019 15:00:00 28,0 13,5 35,2 20,4 19,2 9 5 21 12 ENE 1026,4 20 0,0
14.09.2019 14:00:00 26,5 14,6 33,8 20,2 19,2 11 6 23 12 NE 1026,9 20 0,0
14.09.2019 13:00:00 24,8 15,1 27,8 20,1 19,2 10 6 22 12 ENE 1027,7 20 0,0
14.09.2019 12:00:00 22,5 14,9 26,2 20,1 19,2 11 6 21 11 ENE 1028,3 20 0,0
14.09.2019 11:00:00 20,5 14,8 21,5 20,1 19,2 11 6 18 10 ENE 1028,9 20 0,0
14.09.2019 10:00:00 18,0 14,5 18,6 20,2 19,2 10 5 23 12 NE 1029,4 20 0,0
14.09.2019 09:00:00 16,0 14,2 15,6 20,3 19,1 9 5 17 9 NE 1029,5 20 0,0
14.09.2019 08:00:00 14,9 13,8 13,1 20,4 19,2 5 3 14 8 NNE 1029,4 20 0,0
14.09.2019 07:00:00 14,9 13,6 13,7 20,5 19,1 8 4 18 10 NE 1028,9 20 0,0
14.09.2019 06:00:00 15,3 13,7 13,9 20,6 19,1 8 4 17 9 NNE 1028,7 20 0,0
14.09.2019 05:00:00 15,8 13,8 14,6 20,7 19,1 9 5 19 10 NNE 1028,9 20 0,0

tt = Température de l'air
td = dewpoint
tt 5cm = Température de l'air 5cm
tt -20cm = Température de l'air -20cm
tt -100cm = Température de l'air -100cm
ff = Vitesse du vent
fx = gusts
dd = Direction du vent
ppp = reduced air pressure
vv = visibility
rr = Quantités de précipitations

stations d'obs. à proximité